Location: Cuiry
(49.3858°N, 3.7708°E)
Time: 22:37:11
(UTC+00:00)

Cosmos 292 Rocket - Pass Details

Date: 12 January 2026
Orbit: 663 x 681 km, 74.0° (Epoch: 7 February)

Event Time Altitude Azimuth Distance (km) Brightness Sun altitude
Rises 18:24:22 0° 337° (NNW) 3,014 7.3 -21.1°
Reaches altitude 10° 18:26:41 10° 340° (NNW) 2,096 6.4 -21.5°
Maximum altitude 18:31:23 73° 65° (ENE) 700 3.5 -22.3°
Enters shadow 18:32:19 55° 129° (SE) 804 3.8 -22.4°
